CAPE
6 0 49 213 129 25 46 2 2 25 0 4 59 70 148 109 160 200 371 396 796 1317 2388 2652 2670 2986 3096 3223 3134 2397 1954 1355 930 532 76 2 1 0 2 0 2 0 0 0
0 0 5 9 51 46 147 1 0 0 15 0 6 213 161 149 171 225 278 573 1504 2580 3184 3323 3365 3324 3254 2922 2296 1668 1079 606 298 4 0 1 0 0 2 4 0 0 0 0
0 0 4 0 0 51 134 36 7 0 1 20 24 98 60 70 152 321 371 1082 2369 3039 3248 3358 3317 3171 2698 2041 1460 941 452 165 0 1 4 1 0 0 0 0 0 0 0 0
0 18 0 0 1 0 83 45 39 0 0 6 47 61 4 51 156 292 728 1930 2827 2985 3209 3214 3012 2709 1876 1205 623 361 145 95 15 37 1 0 0 0 0 0 0 0 0 0
0 0 0 0 0 1 32 80 75 10 0 5 7 16 30 55 225 539 1523 2758 2847 3094 3193 3042 2578 1641 908 500 368 314 166 217 75 0 0 0 0 0 0 0 2 1 1 0
0 0 0 0 4 0 19 2 90 6 3 2 11 84 246 224 373 622 2013 2662 2816 3007 2975 2243 1437 746 425 274 386 266 279 202 85 1 0 0 0 0 1 0 0 0 0 0
0 0 0 0 0 2 0 26 155 235 17 8 49 283 320 356 537 1507 2399 2671 2852 2874 2273 1372 803 441 328 395 277 238 224 144 17 0 0 0 0 0 0 0 0 0 0 0
0 0 0 0 2 3 30 46 84 99 21 0 115 162 170 671 1602 2400 2481 2712 2804 2216 1260 853 638 534 307 331 235 203 146 16 0 0 0 0 0 0 0 0 0 0 0 0
0 0 0 0 0 10 27 51 30 51 334 533 135 51 1040 1890 2487 2552 2580 2795 2371 1239 869 704 733 556 328 132 101 116 22 0 0 0 0 0 0 0 0 0 0 0 0 0
0 0 0 0 0 0 5 0 44 60 55 369 120 329 1503 2401 2644 2541 2766 2628 1361 900 638 649 713 551 196 29 117 31 0 0 0 0 0 0 0 0 0 0 0 0 0 0
0 0 0 0 0 0 0 0 2 51 0 18 363 1334 2019 2477 2576 2618 2769 1832 1043 704 574 622 679 374 90 64 59 7 0 0 0 0 0 0 0 0 0 0 0 0 0 0
0 0 0 0 0 0 0 0 5 6 29 8 695 2012 2433 2471 2636 2757 2488 1306 899 716 693 727 592 143 37 76 46 0 0 0 0 0 0 0 0 0 0 0 0 0 0 0
0 0 0 0 0 0 0 0 3 4 56 100 513 2526 2563 2616 2704 2652 1732 1176 820 673 808 770 438 74 19 13 26 0 0 0 0 0 0 0 0 0 0 0 0 0 0 0
679 477 299 0 0 0 0 0 0 0 10 0 8 1806 2978 2916 2780 2315 1446 1189 880 901 922 800 356 76 19 26 29 0 0 0 0 0 0 0 0 0 0 0 0 0 0 0
676 427 217 253 268 279 0 0 1 13 30 0 0 16 2911 3014 2676 2012 1437 1202 991 1134 1054 1000 486 211 98 71 27 0 0 0 0 0 0 0 0 0 0 0 0 0 0 0
536 684 648 344 336 413 275 279 193 32 177 17 0 586 2775 2990 2679 1810 1451 1207 1047 1140 1189 1156 747 476 177 181 32 0 0 0 0 0 0 0 0 0 0 0 0 0 0 0
503 738 787 526 444 370 373 434 415 386 477 784 1675 2617 3012 3151 2555 1779 1538 1303 1415 1425 1380 1297 958 559 75 162 4 0 4 0 0 0 0 0 0 0 0 0 0 0 0 0
549 618 679 767 694 696 837 401 371 450 825 1010 2052 2975 3282 3184 2495 1885 1515 1269 1383 1459 1467 1406 1110 463 63 62 10 0 1 0 0 14 2 0 0 0 0 0 0 0 0 0
775 700 543 1259 1315 931 1077 1561 527 469 1150 2021 3081 3248 3388 3169 2456 1885 1409 1231 1346 1387 1512 1443 793 199 35 28 2 2 20 2 0 22 4 0 0 0 0 0 0 0 0 0
1079 1719 1523 1939 2081 1574 1341 1604 1083 815 2294 2708 3378 3813 3596 3074 2359 1726 1327 1310 1455 1482 1570 1369 542 291 74 6 0 2 6 16 15 1 37 6 0 0 0 0 0 0 0 0
1977 2570 2723 2493 2401 2325 2781 2000 2097 2727 2870 3031 3808 3877 3534 2818 2208 1586 1264 1250 1398 1335 1460 917 469 260 210 15 0 0 0 15 34 2 0 27 16 0 0 0 0 0 0 0
1723 2512 2696 2761 2895 2952 2888 2797 2799 2965 3187 3480 3672 3781 3250 2626 2021 1493 1336 1257 1522 1149 1049 787 591 332 157 1 0 7 10 0 0 0 0 0 0 0 0 0 0 0 0 0
1751 2308 2707 2349 2382 2639 2823 2852 2803 2907 3117 3089 3636 3613 2921 2703 2041 1604 1450 1247 1349 908 1003 1134 737 263 68 29 5 24 1 0 0 0 0 0 0 0 0 0 0 0 0 0
1408 1876 2169 2090 2059 2162 2195 2247 2523 2631 2917 3070 3156 3174 2913 2419 1949 1674 1573 921 842 789 1109 844 276 135 67 62 15 0 0 0 0 0 0 0 0 0 0 0 0 0 0 0
1254 1235 1384 1746 1679 1612 1662 1842 1919 1981 2186 2412 2623 2613 2351 2041 1841 1642 1437 845 546 786 519 92 4 3 31 8 0 0 0 0 0 0 0 0 0 0 0 0 0 0 0 0
372 575 848 700 969 1137 1798 1896 1807 1818 1800 1971 2126 2066 1882 1715 1548 1275 819 593 572 563 243 0 2 34 29 0 0 0 9 0 0 0 0 0 0 0 0 0 0 0 0 0
0 3 88 137 278 873 873 1282 1823 1880 1844 1734 1662 1164 1226 1244 999 881 535 505 282 226 106 23 13 9 0 0 0 15 0 0 0 0 0 0 0 0 0 0 0 0 0 0
CIN
-6 -4 -99 -34 -15 -15 -63 -64 -63 -49 -3 -101 -111 -146 -151 -186 -171 -136 -84 -66 -23 -19 -36 -51 -52 -43 -32 -22 -37 -118 -135 -181 -231 -316 -580 -0 -0 -0 -0 -0 -0 -0 -0 -0
-0 -0 -25 -77 -76 -34 -17 -3 -0 -0 -59 -0 -90 -58 -169 -178 -186 -162 -118 -39 -12 -40 -56 -70 -67 -53 -41 -60 -112 -173 -250 -358 -441 -95 -0 -0 -0 -0 -0 -0 -0 -0 -0 -0
-0 -1 -41 -0 -0 -67 -9 -122 -14 -0 -40 -28 -81 -105 -190 -232 -213 -160 -108 -25 -41 -64 -78 -78 -66 -65 -101 -150 -212 -298 -422 -572 -0 -0 -259 -1 -0 -0 -0 -0 -0 -0 -0 -0
-0 -21 -0 -0 -3 -50 -38 -51 -49 -0 -0 -76 -47 -99 -228 -232 -226 -169 -66 -36 -67 -95 -93 -80 -88 -99 -199 -291 -416 -497 -623 -625 -731 -619 -1 -0 -0 -0 -0 -0 -0 -0 -0 -0
-0 -0 -0 -5 -3 -17 -71 -21 -20 -127 -11 -72 -21 -76 -169 -237 -185 -86 -42 -58 -88 -93 -98 -103 -146 -275 -404 -498 -530 -508 -581 -483 -577 -91 -0 -0 -0 -0 -0 -0 -1 -0 -0 -0
-0 -0 -0 -0 -115 -0 -79 -7 -11 -38 -38 -6 -19 -85 -77 -126 -120 -58 -47 -86 -100 -112 -127 -207 -334 -473 -582 -636 -497 -539 -474 -480 -521 -76 -0 -0 -0 -0 -1 -0 -0 -0 -0 -0
-0 -0 -0 -0 -0 -6 -1 -9 -13 -73 -35 -0 -27 -10 -32 -46 -69 -26 -82 -103 -125 -153 -223 -366 -478 -616 -645 -542 -578 -552 -494 -510 -479 -0 -0 -0 -0 -0 -0 -0 -0 -0 -0 -0
-0 -0 -0 -0 -53 -5 -15 -35 -21 -187 -162 -0 -96 -7 -22 -13 -32 -64 -106 -133 -167 -241 -412 -478 -530 -557 -666 -595 -624 -590 -587 -747 -0 -0 -0 -0 -0 -0 -0 -0 -0 -0 -0 -0
-0 -0 -0 -0 -0 -13 -22 -8 -10 -7 -38 -28 -15 -22 -21 -47 -79 -115 -147 -187 -238 -424 -500 -566 -539 -559 -670 -813 -774 -685 -796 -0 -0 -0 -0 -0 -0 -0 -0 -0 -0 -0 -0 -0
-0 -0 -0 -0 -0 -0 -52 -0 -4 -21 -28 -9 -5 -7 -23 -75 -118 -163 -184 -238 -409 -508 -584 -594 -552 -599 -809 -943 -763 -819 -0 -0 -0 -0 -0 -0 -0 -0 -0 -0 -0 -0 -0 -0
-0 -0 -0 -0 -0 -0 -0 -0 -2 -25 -48 -76 -28 -20 -55 -106 -141 -196 -249 -306 -469 -573 -613 -622 -590 -728 -972 -909 -840 -877 -0 -0 -0 -0 -0 -0 -0 -0 -0 -0 -0 -0 -0 -0
-0 -0 -0 -0 -0 -0 -0 -0 -1 -12 -18 -7 -13 -27 -79 -133 -172 -215 -273 -420 -531 -589 -621 -626 -645 -882 -986 -902 -864 -0 -0 -0 -0 -0 -0 -0 -0 -0 -0 -0 -0 -0 -0 -0
-0 -0 -0 -0 -0 -0 -0 -0 -4 -19 -48 -50 -31 -51 -86 -129 -188 -231 -320 -460 -547 -625 -631 -652 -732 -915 -980 -914 -842 -0 -0 -0 -0 -0 -0 -0 -0 -0 -0 -0 -0 -0 -0 -0
-52 -32 -29 -2 -0 -0 -0 -0 -3 -0 -8 -0 -46 -7 -32 -110 -168 -243 -367 -489 -560 -619 -657 -668 -750 -850 -949 -864 -773 -0 -0 -0 -0 -0 -0 -0 -0 -0 -0 -0 -0 -0 -0 -0
-51 -63 -81 -75 -67 -70 -0 -0 -26 -29 -81 -0 -0 -77 -35 -108 -228 -294 -342 -455 -539 -577 -613 -619 -725 -789 -804 -763 -747 -292 -0 -0 -0 -0 -0 -0 -0 -0 -0 -0 -0 -0 -0 -0
-60 -84 -91 -66 -54 -108 -81 -66 -32 -15 -17 -44 -0 -31 -43 -113 -211 -309 -359 -433 -561 -609 -617 -610 -680 -732 -766 -703 -738 -0 -0 -0 -0 -0 -0 -0 -0 -0 -0 -0 -0 -0 -0 -0
-97 -122 -105 -96 -142 -158 -161 -119 -81 -63 -61 -7 -12 -25 -53 -113 -237 -306 -348 -420 -461 -506 -533 -551 -619 -729 -846 -747 -357 -0 -544 -0 -0 -0 -0 -0 -0 -0 -0 -0 -0 -0 -0 -0
-146 -146 -138 -153 -155 -138 -78 -109 -114 -73 -57 -7 -18 -27 -59 -124 -267 -357 -418 -433 -431 -434 -464 -499 -575 -741 -836 -778 -706 -0 -159 -0 -0 -434 -123 -0 -0 -0 -0 -0 -0 -0 -0 -0
-124 -147 -156 -104 -98 -140 -113 -62 -77 -58 -30 -12 -27 -44 -87 -156 -279 -346 -403 -426 -441 -462 -469 -485 -657 -777 -805 -770 -291 -515 -471 -415 -335 -439 -350 -0 -0 -0 -0 -0 -0 -0 -0 -0
-12 -6 -17 -24 -46 -80 -92 -61 -77 -56 -17 -21 -32 -44 -85 -159 -283 -363 -389 -427 -461 -452 -375 -446 -668 -660 -694 -503 -0 -378 -411 -362 -410 -398 -269 -283 -89 -0 -0 -0 -0 -0 -0 -0
-23 -7 -4 -2 -14 -27 -28 -37 -20 -12 -47 -52 -52 -78 -124 -233 -308 -376 -386 -426 -458 -436 -445 -603 -642 -612 -623 -482 -0 -0 -3 -309 -259 -259 -0 -133 -148 -0 -0 -0 -0 -0 -0 -0
-19 -5 -10 -27 -19 -17 -24 -18 -21 -47 -67 -75 -84 -89 -151 -230 -350 -407 -391 -408 -337 -425 -414 -540 -559 -523 -563 -183 -0 -344 -204 -0 -0 -0 -0 -0 -0 -0 -0 -0 -0 -0 -0 -0
-5 -4 -2 -41 -58 -50 -26 -20 -36 -41 -61 -95 -51 -77 -156 -158 -321 -334 -371 -381 -348 -414 -376 -343 -431 -515 -497 -457 -133 -317 -287 -50 -0 -0 -0 -0 -0 -0 -0 -0 -0 -0 -0 -0
-6 -6 -7 -51 -60 -77 -89 -121 -105 -108 -90 -87 -76 -81 -116 -176 -268 -290 -283 -384 -427 -451 -344 -400 -517 -488 -431 -345 -372 -0 -0 -20 -15 -0 -0 -0 -0 -0 -0 -0 -0 -0 -0 -0
-13 -15 -19 -8 -34 -83 -115 -130 -160 -179 -175 -145 -105 -105 -129 -169 -202 -224 -251 -410 -519 -450 -533 -611 -514 -442 -418 -464 -0 -0 -0 -0 -0 -0 -0 -0 -0 -0 -0 -0 -0 -0 -0 -0
-39 -42 -38 -124 -106 -113 -47 -52 -108 -139 -163 -135 -110 -113 -126 -132 -147 -235 -420 -444 -412 -424 -600 -0 -299 -510 -420 -0 -0 -0 -622 -0 -0 -0 -0 -0 -0 -0 -0 -0 -0 -0 -0 -0
-0 -13 -186 -234 -242 -117 -185 -110 -65 -84 -94 -112 -130 -272 -232 -198 -241 -303 -406 -379 -461 -474 -519 -671 -660 -508 -0 -0 -0 -397 -0 -0 -0 -0 -0 -0 -0 -0 -0 -0 -0 -0 -0 -0
Wind_Speed
38 40 41 31 32 28 11 12 23 20 15 17 18 20 20 22 22 21 20 23 17 14 11 12 13 14 15 15 15 16 16 17 17 17 18 19 19 20 21 22 23 24 24 25
49 45 29 36 35 35 20 7 4 28 17 12 15 16 19 18 19 20 20 21 14 13 13 14 14 14 14 14 15 15 16 16 17 17 19 20 20 21 22 23 23 24 25 25
48 39 18 38 44 37 38 12 10 17 14 15 13 17 17 20 21 20 22 16 14 13 13 14 13 13 13 14 14 15 16 17 18 19 19 20 21 21 22 23 23 24 25 25
47 25 44 41 43 41 35 24 7 8 23 25 16 16 18 21 22 21 17 15 15 13 12 13 14 13 14 14 15 16 17 18 18 19 19 20 21 21 22 22 23 23 24 24
49 52 37 25 39 30 26 27 4 8 8 45 15 15 19 21 22 18 18 15 15 13 13 12 12 12 14 15 16 16 17 18 18 18 19 19 19 20 21 21 22 23 23 23
45 54 54 43 35 35 34 26 5 14 6 35 20 21 20 23 22 19 16 14 15 13 13 11 11 13 14 15 16 16 17 17 18 17 18 18 19 20 20 21 22 22 23 24
47 48 51 43 41 26 29 25 11 8 13 35 15 14 19 23 22 19 16 15 14 13 12 12 13 14 15 16 16 16 17 17 17 18 18 19 19 19 20 21 21 22 23 24
45 43 46 39 40 34 25 26 29 7 10 35 43 15 20 21 21 18 16 15 14 12 12 13 13 15 16 16 17 17 18 19 19 19 18 18 18 19 19 20 19 19 20 22
45 45 32 32 34 28 32 16 18 23 22 22 16 15 21 20 17 17 17 17 14 13 13 13 13 15 16 17 18 19 19 18 18 18 18 18 18 18 18 17 17 16 16 17
49 43 48 40 34 31 30 29 24 10 21 17 14 14 18 19 15 17 17 18 17 16 16 15 14 14 16 19 19 19 18 18 18 18 18 19 18 16 16 17 17 17 17 18
50 48 38 46 41 35 30 28 36 8 15 23 35 18 19 17 16 18 19 19 19 19 18 18 17 16 17 17 18 17 16 17 17 17 18 17 18 19 19 19 18 18 19 17
50 45 47 40 44 43 37 33 21 23 14 26 22 22 20 17 16 19 22 19 19 19 19 19 18 18 17 17 16 15 15 15 15 16 16 16 17 19 21 19 20 20 19 18
39 37 43 42 40 46 41 32 25 16 19 19 11 17 16 15 16 20 20 20 22 22 20 21 18 17 17 16 15 14 14 14 15 16 15 16 15 15 16 18 19 18 18 18
13 19 25 39 41 42 42 33 27 11 18 29 27 10 22 14 13 22 24 24 22 21 20 21 19 17 17 15 14 13 12 12 13 13 13 14 14 14 14 14 14 15 14 14
20 22 24 26 29 30 39 34 31 24 10 19 20 21 19 13 13 25 21 21 20 19 20 20 19 18 17 16 13 13 10 10 10 10 11 11 11 10 10 10 10 12 13 12
27 26 26 26 29 31 31 33 32 33 25 14 16 15 21 14 13 19 21 23 25 27 24 23 21 20 20 17 15 13 9 10 9 8 8 9 8 8 8 9 12 10 10 9
31 31 28 31 31 34 35 34 33 33 35 28 21 17 16 15 15 18 22 23 21 19 20 19 18 18 19 17 16 11 7 8 8 7 7 6 6 7 8 8 8 9 9 7
34 34 34 34 34 34 33 37 37 34 32 24 19 20 20 19 18 19 22 24 21 19 19 17 17 17 15 14 13 11 8 6 6 3 4 5 5 6 5 6 8 9 11 10
38 38 37 37 37 37 37 36 36 37 33 23 19 22 21 21 20 21 22 25 25 23 22 18 18 15 12 12 9 6 6 6 5 1 3 4 5 5 6 5 8 9 8 8
37 35 37 39 39 37 39 36 37 36 23 22 23 23 22 20 20 20 23 27 25 22 18 17 17 14 11 11 9 4 3 1 2 3 5 5 4 2 5 7 7 6 6 6
25 28 26 29 30 28 31 37 33 22 22 25 25 25 22 21 19 20 23 26 24 22 21 20 19 16 13 14 14 6 4 4 4 6 8 8 8 8 10 6 6 6 5 6
21 22 22 21 21 23 24 22 20 20 22 24 24 23 20 21 18 17 22 24 24 21 19 21 20 16 13 16 14 8 5 3 4 6 8 9 9 10 6 7 5 5 6 7
16 15 16 16 19 20 21 22 21 22 22 24 23 19 18 18 17 18 24 18 18 19 18 19 17 17 15 13 12 6 4 5 10 11 14 15 15 8 5 5 6 5 4 7
10 11 11 12 14 16 17 18 18 19 20 20 22 21 17 15 14 16 16 17 19 20 17 17 17 16 16 13 11 6 3 6 16 17 8 7 6 3 6 7 5 7 7 7
8 6 8 9 10 13 14 14 17 18 17 18 18 17 17 18 19 18 16 14 18 18 16 17 18 17 14 14 14 11 9 16 16 7 7 5 5 4 5 4 5 8 8 7
6 8 9 9 9 9 12 12 13 14 15 15 14 14 16 16 19 14 13 13 15 15 16 17 18 18 17 16 17 15 14 12 11 10 7 7 6 6 4 4 7 7 7 6
6 7 8 9 11 10 10 9 11 10 11 10 10 8 7 7 7 8 9 12 14 15 17 14 15 16 14 14 12 12 11 12 8 7 8 8 7 8 5 6 6 7 6 10
Wind_Direction
240 221 214 251 249 249 271 163 252 202 136 136 135 132 125 120 118 117 115 125 107 95 75 71 70 65 63 57 55 52 55 47 39 37 40 51 48 44 44 46 44 40 37 32
235 230 269 248 243 255 246 132 163 225 249 146 134 131 127 126 124 125 123 124 104 96 93 89 82 73 63 53 53 52 50 49 45 47 59 58 56 56 54 49 48 44 41 40
235 240 262 244 237 245 232 139 142 186 240 221 149 139 134 133 132 129 132 117 110 108 100 93 85 76 59 57 52 50 55 59 63 71 65 61 62 58 54 52 45 47 48 41
234 248 239 238 231 243 244 265 260 145 178 225 154 141 138 137 133 132 125 120 116 110 98 93 89 78 68 62 65 67 67 71 72 68 64 63 60 58 59 54 49 53 50 41
234 235 245 257 225 243 232 251 159 181 143 202 195 147 144 140 135 131 128 123 120 113 105 94 82 74 72 74 75 74 76 75 72 71 68 63 59 60 62 60 50 48 46 38
234 234 227 229 199 206 176 235 258 135 166 212 153 152 147 141 136 132 126 124 123 117 110 95 83 84 82 83 81 78 78 74 73 66 59 55 60 61 62 54 48 52 54 45
232 234 233 232 214 179 242 238 242 200 143 211 179 158 143 143 138 133 130 128 123 119 114 105 99 95 89 89 86 84 79 75 70 69 65 66 65 60 52 61 62 57 56 53
232 235 232 233 229 238 253 242 242 161 130 208 196 154 150 145 136 132 134 133 129 123 117 112 106 102 98 95 92 90 87 84 80 77 73 67 66 69 73 75 76 73 69 58
234 234 241 241 241 245 241 260 242 247 160 157 172 172 156 152 144 140 139 137 132 129 123 118 112 109 104 102 101 97 92 84 87 77 74 78 76 79 82 85 76 76 72 58
235 238 235 240 242 245 248 242 241 251 246 208 191 183 172 155 152 147 144 141 136 135 133 126 122 114 110 110 106 101 93 86 83 80 84 88 84 92 80 72 65 62 59 54
235 237 244 236 238 238 244 246 232 247 241 244 226 198 178 171 165 156 151 146 141 139 138 134 130 123 120 116 110 102 93 90 87 83 91 80 55 57 57 53 55 52 47 54
234 235 236 239 237 235 241 255 255 241 249 244 220 188 185 179 174 162 156 151 148 144 140 139 136 133 128 123 116 106 98 94 89 87 91 76 64 54 47 52 48 44 46 45
242 236 239 240 239 232 238 247 257 239 242 250 250 180 187 188 177 166 163 160 156 152 146 144 142 141 136 130 122 114 103 99 94 89 89 75 74 66 58 54 50 50 50 46
280 239 244 232 231 233 234 246 260 242 244 251 252 185 214 201 181 173 170 167 161 156 151 149 147 147 143 137 129 120 108 105 97 90 86 78 79 75 68 60 54 57 57 50
261 250 246 243 242 243 235 240 247 252 233 253 258 252 219 203 173 173 179 174 169 165 159 154 153 152 149 144 138 131 115 110 103 95 86 82 83 77 73 67 67 65 60 53
255 251 248 243 243 243 243 242 251 249 263 199 184 186 227 184 191 192 187 182 174 172 167 163 160 154 151 149 146 142 129 125 116 97 79 77 72 62 50 51 46 54 52 55
250 245 248 244 245 243 244 247 253 251 263 242 223 205 202 207 208 204 199 192 192 190 177 173 169 161 158 155 152 148 136 137 133 102 80 56 44 30 35 38 35 33 33 48
254 253 251 249 248 247 249 245 246 250 261 240 223 218 214 208 212 208 202 197 204 198 193 188 178 171 168 165 159 152 145 140 148 106 66 33 17 41 40 39 23 18 35 55
252 253 251 249 249 248 246 248 245 246 256 246 231 221 220 225 227 226 217 210 206 203 195 192 184 183 188 176 174 169 156 143 160 143 7 24 21 4 3 25 6 10 36 48
248 253 250 250 250 250 245 249 250 249 247 242 237 233 230 228 228 227 220 217 214 216 206 204 195 201 204 201 194 219 225 225 314 308 332 345 2 111 20 359 360 10 38 50
255 250 255 251 249 249 252 245 249 237 242 241 239 237 233 228 231 226 221 221 215 214 208 203 209 200 209 192 190 227 225 257 287 315 318 307 321 342 338 340 1 4 17 21
258 253 253 255 254 250 254 252 249 247 243 241 241 238 230 230 233 221 231 232 231 224 218 203 213 201 198 184 194 192 190 202 301 318 321 325 319 319 319 327 344 350 3 10
265 259 256 259 258 256 258 255 251 247 244 243 241 238 235 235 236 226 236 223 221 206 198 196 200 197 199 204 192 211 265 318 320 328 312 309 310 298 302 316 324 340 357 0
272 270 269 267 264 262 258 257 252 251 246 242 242 241 241 239 235 239 246 227 212 200 208 204 205 196 192 207 196 228 206 316 316 315 272 294 279 245 295 318 324 326 344 357
271 300 298 277 268 260 255 255 253 248 248 250 250 250 251 252 252 249 242 225 194 202 212 214 208 196 204 206 207 213 272 305 307 285 253 261 260 285 297 296 316 317 336 340
295 285 292 298 290 282 256 253 249 252 253 254 260 264 267 260 262 249 236 213 207 222 228 220 211 210 218 221 231 251 279 300 294 255 256 259 280 293 290 293 321 327 339 334
302 302 296 290 280 276 279 273 260 262 263 264 261 283 290 280 264 253 234 214 223 239 241 221 214 220 229 241 252 255 282 301 289 269 274 268 272 285 289 309 327 324 340 340